Hourly Data Report for October 02, 2016

All times are specified in Local Standard Time (LST). Add 1 hour to adjust for Daylight Saving Time where and when it is observed.

ARVIAT A
NUNAVUT

61°05'38.000" N
94°04'18.000" W
10.40 m
2300427
71174
YEK

Related Data

No related data is available for this station

Download Data

Hourly Data (October 2016)
Hourly Data Report for October 2, 2016
Temp Definition
°C
Dew Point Temp Definition
°C
Rel Hum Definition
%
Wind Dir Definition
10's deg

Wind Spd Definition
km/h
Visibility Definition
km
Stn Press Definition
kPa
Hmdx Definition


Wind Chill Definition


Weather Definition


TIME
00:00 Legend Double Dagger 1.9 -1.3 80 34 18 16.1 103.01     Rain
01:00 Legend Double Dagger 1.4 -1.4 82 32 17 16.1 103.06     LegendNANA
02:00 Legend Double Dagger 1.3 -1.0 85 32 13 16.1 103.03     LegendNANA
03:00 Legend Double Dagger 1.4 -0.8 85 31 9 16.1 103.03     LegendNANA
04:00 Legend Double Dagger 1.3 -0.5 88 32 13 16.1 103.01     LegendNANA
05:00 Legend Double Dagger 1.6 -0.9 83 33 15 16.1 103.01     LegendNANA
06:00 Legend Double Dagger 1.0 -1.1 86 33 11 16.1 102.99     LegendNANA
07:00 Legend Double Dagger 0.2 -1.3 90 31 5 16.1 102.96     LegendNANA
08:00 Legend Double Dagger 0.1 -1.1 92 31 8 16.1 102.93     LegendNANA
09:00 Legend Double Dagger 0.3 -0.4 95 33 9 16.1 102.90     LegendNANA
10:00 Legend Double Dagger 1.3 0.3 93 LegendMM LegendMM 16.1 102.84     LegendNANA
11:00 Legend Double Dagger 2.1 0.7 90 4 4 16.1 102.82     LegendNANA
12:00 Legend Double Dagger 2.1 0.7 90   0 16.1 102.74     LegendNANA
13:00 Legend Double Dagger 2.8 0.6 85 11 11 16.1 102.65     LegendNANA
14:00 Legend Double Dagger 3.1 0.5 83 12 18 16.1 102.56     LegendNANA
15:00 Legend Double Dagger 3.3 0.7 83 12 18 16.1 102.44     LegendNANA
16:00 Legend Double Dagger 3.0 1.2 88 14 22 16.1 102.31     LegendNANA
17:00 Legend Double Dagger 3.1 0.6 84 13 30 16.1 102.17     LegendNANA
18:00 Legend Double Dagger 3.1 0.6 84 14 34 16.1 102.10     LegendNANA
19:00 Legend Double Dagger 3.1 0.8 85 14 37 16.1 101.93     LegendNANA
20:00 Legend Double Dagger 2.7 1.8 94 13 37 16.1 101.72     Rain
21:00 Legend Double Dagger 3.0 2.3 95 14 41 6.4 101.56     Rain,Fog
22:00 Legend Double Dagger 3.5 2.5 93 13 48 16.1 101.32     LegendNANA
23:00 Legend Double Dagger 3.7 2.7 93 15 46 16.1 101.18     LegendNANA

Notes on Data Quality.

Legend

  • E = Estimated
  • M = Missing
  • NA = Not Available
  • ‡ = Partner data that is not subject to review by the National Climate Archives
Date modified: